Location: Joplin, MO
(37.0842°N, 94.5133°W)
Time: 19:17:57
(UTC+02:00)

Courier 1B Rocket - Pass Details

Date: 05 April 2023
Orbit: 920 x 1202 km, 28.2° (Epoch: 08 June)

Event Time Altitude Azimuth Distance (km) Brightness Sun altitude
Rises 06:00:03 0° 260° (W) 3,918 8.6 -35.8°
Reaches altitude 10° 06:04:44 10° 234° (SW) 2,887 7.5 -36.5°
Enters shadow 06:04:54 10° 233° (SW) 2,862 7.5 -36.5°
Maximum altitude 06:07:37 13° 210° (SSW) 2,635 - -36.9°
Drops below altitude 10° 06:10:26 10° 185° (S) 2,795 - -37.3°
Sets 06:14:49 0° 158° (SSE) 3,677 - -37.9°
